Showing default

SHIYAN 24C 03, 58652

Orbit data source: Space-Track

SHIYAN 24C 03, 58652 is a payload satellite owned by CASC (CN) in SSO that was launched on Mon, 25 Dec 2023 UTC via a CHANG ZHENG 11 launch vehicle from the South China Sea Launch Area (SCSLA). Payload-class satellites include a variety of spacecraft equipped with specific instruments for various scientific and technological missions. These include communications satellites like Starlink; space stations such as the ISS; scientific satellites like the Hubble; Earth observation satellites from companies like Planet Labs, Umbra, and HawkEye 360; GPS; miniature CubeSats for education and research; and military/defense satellites.

Loading next visibility...
Identifier
58652, 2023-206C
Orbit
SSO
Last TLE update
8 hours ago
Origin
Manufacturer
SECM?
Mission
Operational Defense Technology
Bus & Motor
Unknown
Mass
~80 kg wet, ~80 kg dry
Launch date (UTC)
2023-12-25 (2 years ago)
Launch vehicle
CHANG ZHENG 11
Launch site
South China Sea Launch Area (SCSLA)
Object type
Payload
Rocket body
Debris
Shape & HBR
Box + 2 Pan, 8 m
Radar Cross Section
6.005 m², Medium (>0.1 m² and < 1m²)

Expand to show TLE details & history

TLE from 8 hours ago
0 SHIYAN 24C 03
1 58652U 23206C   25182.76012206  .00001383  00000-0  12514-3 0  9992
2 58652  97.3613 164.5853 0002198 110.2160 249.9300 14.96897426 82856
Epoch: 2025-07-01T18:14Z
TLE epoch observation values (Epoch: 2025-07-01T18:14:34.545Z)
Latitude
0.00003°
Longitude
-29.1096°
Altitude
580.075 km
Speed
7.57 km/s
True Right ascension
10h 58m 20s
True Declination
0° 00' 00"
Sunlit
Object was in daylight at epoch
Visualization orbit readout
Latitude
25.9893°
Longitude
-32.38153°
Altitude
579.575 km
Speed
7.573 km/s
Apparent Right ascension
07h 23m 34s
Apparent Declination
-12° 06' 09"
Sunlit
Object is in daylight
Visualization observer readout
Local Sidereal Time
14:03:54
Azimuth
266.97° W
Elevation
-15.416°
Doppler factor
1
Orbital elements
Apogee altitude
575.012 km
Perigee altitude
571.956 km
Semi-major axis
6,951.621 km
Eccentricity
0.00022
Inclination
97.3613°
RAAN
164.5853°
Arg. of periapsis
110.216°
True anomaly
Unknown
Mean anomaly
249.93°
Eccentric anomaly
Unknown
Mean motion
3.74467 °/min
Orbital period
96.14 mins
BSTAR
0.00012514
Loading maneuver chart data...
Loading SW <> Apogee altitude chart data...
Loading historical data...
Loading historical data...
Loading historical data...
Loading historical data...
Loading historical data...
Loading historical data...
Loading historical data...
Other satellites on launch #206 in the year 2023 (2023-12-25 UTC)

SHIYAN 24C 03 Visibility forecast

Observer location: undefined°, undefined°

Span
Click to sort rows by Start time (UTC) header in descending order
Start Az.
Max El. time (UTC)
Max El. Az.
Max El.
End time (UTC)
End Az.
6 mins2025-07-02 10:51:50.502Z43.163° NE2025-07-02 10:54:50.502Z94.634° ESE21.757°2025-07-02 10:57:50.502Z146.351° SSE
5 mins2025-07-02 12:27:50.502Z334.049° NNW2025-07-02 12:29:50.502Z295.559° NW22.907°2025-07-02 12:32:50.502Z239.676° WSW
5 mins2025-07-02 23:15:50.502Z203.288° SW2025-07-02 23:17:50.502Z265.164° W35.185°2025-07-02 23:20:50.502Z330.549° NNW
|